STARLINK-11645, 63316

Orbit data source: Space-Track

STARLINK-11645, 63316 is a payload satellite owned by SpaceX/Seattle (US) in LEO that was launched on Tue, 18 Mar 2025 UTC via an FALCON 9 launch vehicle from the Air Force Eastern Test Range (AFETR). Payload-class satellites include a variety of spacecraft equipped with specific instruments for various scientific and technological missions. These include communications satellites like Starlink; space stations such as the ISS; scientific satellites like the Hubble; Earth observation satellites from companies like Planet Labs, Umbra, and HawkEye 360; GPS; miniature CubeSats for education and research; and military/defense satellites.

Loading next visibility...
Identifier
63316, 2025-057K
Orbit
LEO
Country
Flag of USUS
Related business
Manufacturer
SpaceX/Seattle
Mission
Operational Commercial Communications
Bus & Motor
STARLINK V2MD, Unknown motor
Mass
960 kg wet, ~910 kg dry
Launch date (UTC)
2025-03-18 (1 year ago)
Launch vehicle
FALCON 9
Launch site
Air Force Eastern Test Range (AFETR)
Object type
Payload
Rocket body
Debris
Shape & HBR
Box + 2 Pan, 18.1 m
Radar Cross Section
36.964 m², Large (>1 m²)

Expand to show TLE details & history
Last TLE update: 15 hours ago

TLE from 15 hours ago
0 STARLINK-11645
1 63316U 25057K   26126.41717256  .00201189  00000-0  15307-2 0  9997
2 63316  43.0008 276.8375 0002254 271.6483  88.4127 15.70886872 66282
Epoch: 2026-05-06T10:00Z
TLE epoch observation values (Epoch: 2026-05-06T10:00:43.709Z)
Latitude
0.00003°
Longitude
-97.62255°
Altitude
356.091 km
Speed
7.697 km/s
True Right ascension
18h 27m 21s
True Declination
0° 00' 00"
Sunlit
Object was in full shadow at epoch
Visualization orbit readout
Latitude
Unknown
Longitude
Unknown
Altitude
Unknown
Speed
Unknown
Apparent Right ascension
Unknown
Apparent Declination
Unknown
Sunlit
N/A
Visualization observer readout
Local Sidereal Time
08:41:31
Azimuth
Unknown
Elevation
Unknown
Doppler factor
Unknown
Orbital elements
Apogee altitude
359.861 km
Perigee altitude
356.824 km
Semi-major axis
6,736.48 km
Eccentricity
0.00023
Inclination
43.0008°
RAAN
276.8375°
Arg. of periapsis
271.6483°
True anomaly
88.43852°
Mean anomaly
88.4127°
Eccentric anomaly
88.42561°
Mean motion
3.92549 °/min
Orbital period
91.71 mins
BSTAR
0.0015307
Loading maneuver chart data...
Computing Atmospheric mass density...
Loading historical data...
Loading historical data...
Loading historical data...
Loading historical data...
Loading historical data...
Loading historical data...
Loading historical data...

Documentation

Showing up to 5 results
|